Regional Weather Roundup
Issued by NWS Spokane, WA

Home | Current Version | Previous Version | Text Only | Print | Product List | Glossary On
Versions: 1 2 3 4 5 6 7 8 9 10 11 12 13 14 15 16 17 18 19 20 21 22 23 24 25 26 27 28 29 30 31 32 33 34 35 36 37 38 39 40 41 42 43 44 45 46 47 48 49 50
000
NZUS01 KOTX 280225
RWROTX

Eastern Washington/Northern Idaho Roundup
National Weather Service, Spokane WA
700 PM PDT TUE JUN 27 2017

Note: "fair" indicated few or no clouds below 12,000 feet with no
significant weather and/or obstructions to visibility.

...Northeast Washington and Northern Idaho Panhandle...

CITY           SKY/WX    TMP DP  RH WIND       PRES   REMARKS
Spokane Intl   PTSUNNY   81  26  13 W10       29.81F
Spokane Downto MOSUNNY   82  30  15 SW8       29.79F
Coeur d Alene  SUNNY     78  43  28 W7        29.81F
Deer Park      SUNNY     80  28  15 W8        29.79F
Bonners Ferry  FAIR      75  45  33 SW8       29.76S

...Southeast Washington and southern Idaho Panhandle...

CITY           SKY/WX    TMP DP  RH WIND       PRES   REMARKS
Walla Walla    PTSUNNY   82  46  28 W8        29.79F
Pullman/Moscow MOSUNNY   73  44  35 W5        29.86F
Lewiston       MOSUNNY   83  41  22 NW10      29.79S
Lowell           N/A     75  53  46 CALM      29.77F

...Columbia Basin...

CITY           SKY/WX    TMP DP  RH WIND       PRES   REMARKS
Ephrata        SUNNY     85  30  13 S10       29.75F
Moses Lake     SUNNY     86  29  12 S13       29.76F
Pasco          CLOUDY    85  44  23 S9        29.76F
Hermiston      PTSUNNY   84  38  19 NW3       29.77S
Pendleton      MOSUNNY   78  43  28 NW7       29.81S

...East Slopes Cascades...

CITY           SKY/WX    TMP DP  RH WIND       PRES   REMARKS
The Dalles     MOSUNNY   75  50  41 NW17G28   29.82F
Yakima         SUNNY     88  35  15 NW14      29.77S
Ellensburg     SUNNY     77  38  24 NW29G39   29.82S
Stampede Pass  MOSUNNY   58  46  64 VRB7      30.01S
Wenatchee      SUNNY     82  31  15 NW10      29.76S
Omak           PTSUNNY   79  47  32 N6        29.75F
Chelan           N/A     82  39  21 S14         N/A
Sunnyside      PTCLDY    78  52  40 E3        29.75F

...Southern British Columbia...

CITY           SKY/WX    TMP DP  RH WIND       PRES   REMARKS
Penticton      MOSUNNY   79  39  24 NW7       29.75F
Castlegar      MOSUNNY   81  36  19 N9        29.73F
Cranbrook      MOSUNNY   77  23  13 W13G21    29.74S
Osoyoos          N/A     82  36  18 S5          N/A
Creston          N/A     81  30  16 NW2         N/A

...Western Montana...

CITY           SKY/WX    TMP DP  RH WIND       PRES   REMARKS
Kalispell      PTCLDY    75  44  33 SW3       29.77S
Missoula       MOSUNNY   78  38  23 W10       29.79S

...Neighboring Cities...

CITY           SKY/WX    TMP DP  RH WIND       PRES   REMARKS
Seattle        MOSUNNY   69  51  52 S6        29.97F
Portland       MOSUNNY   76  50  40 VRB3      29.94F
Boise          SUNNY     87  41  19 N5        29.77F
Great Falls    SUNNY     74  46  36 SE10      29.76F
Calgary        MOSUNNY   66  43  42 SE12      29.73S



USA.gov is the U.S. government's official web portal to all federal, state and local government web resources and services.